FW7336 Weather Reports


Display with metric or nautical units.
time (UTC)temp
F
wind
direction
speed
MPH
gust
MPH
rain 1hr
in
rain 24hr
in
rain mn
in
humidity
%
barometer
mb
20260507133054 56 120 6.0 10.0 0.00 0.00 0.00 61 1016.7
20260507131556 56 124 6.0 8.0 0.00 0.00 0.00 62 1016.8
20260507130058 56 129 6.0 9.0 0.00 0.00 0.00 62 1016.9
20260507124552 56 105 5.0 10.0 0.00 0.00 0.00 63 1016.9
20260507123054 55 129 5.0 10.0 0.00 0.00 0.00 63 1016.9
20260507121558 55 79 3.0 8.0 0.00 0.00 0.00 65 1017.0
20260507120144 55 153 5.0 11.0 0.00 0.00 0.00 64 1017.1
20260507114602 56 145 3.0 11.0 0.00 0.00 0.00 66 1017.0
20260507113057 55 188 4.0 12.0 0.00 0.00 0.00 68 1017.1
20260507111600 54 126 5.0 13.0 0.00 0.00 0.00 70 1017.2
20260507110111 54 167 6.0 9.0 0.00 0.00 0.00 69 1017.2
20260507104554 54 181 4.0 13.0 0.00 0.00 0.00 71 1017.4
20260507103052 53 229 3.0 11.0 0.00 0.00 0.00 71 1017.6
20260507101625 53 155 3.0 8.0 0.00 0.00 0.00 74 1017.6
20260507100056 53 205 5.0 10.0 0.00 0.00 0.00 74 1017.6
20260507094552 52 136 3.0 7.0 0.00 0.00 0.00 76 1017.6
20260507093057 52 226 5.0 12.0 0.00 0.00 0.00 76 1017.7
20260507091549 51 160 6.0 13.0 0.00 0.00 0.00 78 1017.5
20260507090057 50 166 6.0 10.0 0.00 0.00 0.00 79 1017.5
20260507084557 50 153 8.0 12.0 0.00 0.00 0.00 79 1017.6
20260507083055 50 143 4.0 6.0 0.00 0.00 0.00 80 1017.6
20260507081553 50 296 1.0 3.0 0.00 0.00 0.00 82 1017.6
20260507080053 50 41 0.0 1.0 0.00 0.00 0.00 88 1017.6
20260507074601 48 0 0.0 2.0 0.00 0.00 0.00 90 1017.6
20260507073054 47 0 0.0 1.0 0.00 0.00 0.00 92 1017.5
20260507071554 46 331 0.0 1.0 0.00 0.00 0.00 93 1017.3
20260507070057 44 331 0.0 3.0 0.00 0.00 0.00 92 1017.3
20260507064621 44 313 1.0 4.0 0.00 0.00 0.00 90 1017.4
20260507063058 43 0 0.0 1.0 0.00 0.00 0.00 94 1017.3
20260507061552 41 356 0.0 2.0 0.00 0.00 0.00 94 1017.2
20260507060057 39 341 1.0 4.0 0.00 0.00 0.00 94 1017.2
20260507054604 39 339 2.0 3.0 0.00 0.00 0.00 92 1017.1
20260507053054 40 312 2.0 4.0 0.00 0.00 0.00 92 1017.2
20260507051555 40 336 0.0 4.0 0.00 0.00 0.00 94 1017.0
20260507044551 38 51 1.0 3.0 0.00 0.00 0.00 95 1016.9
20260507043100 37 311 0.0 1.0 0.00 0.00 0.00 93 1017.0
20260507041603 38 312 0.0 2.0 0.00 0.00 0.00 93 1017.0
20260507040057 39 316 0.0 2.0 0.00 0.00 0.00 93 1017.0
20260507034557 39 316 1.0 2.0 0.00 0.00 0.00 93 1017.1
20260507033055 39 0 0.0 1.0 0.00 0.00 0.00 93 1017.1
20260507031553 39 0 0.0 0.0 0.00 0.00 0.00 93 1017.1
20260507030059 39 0 0.0 1.0 0.00 0.00 0.00 93 1017.1
20260507024554 38 0 0.0 2.0 0.00 0.00 0.00 93 1017.0
20260507023109 38 0 0.0 1.0 0.00 0.00 0.00 93 1017.0
20260507021556 38 0 0.0 2.0 0.00 0.00 0.00 93 1016.8
20260507020057 38 304 2.0 3.0 0.00 0.00 0.00 92 1017.0
20260507014607 38 302 2.0 4.0 0.00 0.00 0.00 92 1017.2
20260507013111 39 308 2.0 3.0 0.00 0.00 0.00 91 1017.2
20260507011553 40 314 1.0 2.0 0.00 0.00 0.00 91 1017.2
20260507010054 41 321 1.0 2.0 0.00 0.00 0.00 92 1017.2
20260507004554 41 327 0.0 1.0 0.00 0.00 0.00 92 1017.2
20260507003057 41 327 0.0 1.0 0.00 0.00 0.00 91 1017.1
20260507001622 41 326 0.0 2.0 0.00 0.00 0.00 91 1017.3
20260507000059 41 333 0.0 0.0 0.00 0.00 0.00 91 1017.4
20260506234554 41 0 0.0 1.0 0.00 0.00 0.00 90 1017.4
20260506233102 41 333 0.0 1.0 0.00 0.00 0.00 90 1017.4
20260506231554 42 333 0.0 2.0 0.00 0.00 0.00 90 1017.5
20260506230059 42 0 1.0 3.0 0.00 0.00 0.00 89 1017.5
20260506224552 42 350 2.0 3.0 0.00 0.00 0.00 89 1017.6
20260506223106 42 0 0.0 1.0 0.00 0.00 0.00 89 1017.5
20260506221602 43 331 1.0 3.0 0.00 0.00 0.00 88 1017.4
20260506220058 43 355 2.0 4.0 0.00 0.00 0.00 88 1017.3
20260506214608 44 1 3.0 6.0 0.00 0.00 0.00 87 1017.3
20260506213055 44 53 5.0 8.0 0.00 0.00 0.00 87 1017.0
20260506211553 44 75 6.0 9.0 0.00 0.00 0.00 87 1016.9
20260506210128 45 81 4.0 7.0 0.00 0.00 0.00 86 1017.0
20260506204601 45 59 5.0 8.0 0.00 0.00 0.00 86 1017.1
20260506203104 45 62 6.0 9.0 0.00 0.00 0.00 85 1017.0
20260506201607 45 68 6.0 9.0 0.00 0.00 0.00 84 1016.8
20260506200146 46 63 7.0 11.0 0.00 0.00 0.00 84 1016.6
20260506194617 46 66 7.0 11.0 0.00 0.00 0.00 82 1016.6
20260506193101 46 76 8.0 11.0 0.00 0.00 0.00 81 1016.6
20260506191603 47 69 7.0 10.0 0.00 0.00 0.00 80 1016.5
20260506190111 47 81 7.0 12.0 0.00 0.00 0.00 81 1016.5
20260506184601 47 61 8.0 12.0 0.00 0.00 0.00 80 1016.5
20260506183111 47 60 10.0 11.0 0.00 0.00 0.00 79 1016.5
20260506181600 48 57 8.0 11.0 0.00 0.00 0.00 79 1016.4
20260506174556 48 70 10.0 11.0 0.00 0.00 0.00 1016.3
20260506173154 48 63 10.0 12.0 0.00 0.00 0.00 1016.2
20260506171602 48 81 10.0 14.0 0.00 0.00 0.00 78 1016.1
20260506170151 48 72 10.0 15.0 0.00 0.00 0.00 79 1016.0
20260506164553 49 50 10.0 14.0 0.00 0.00 0.00 79 1016.2
20260506163119 49 52 10.0 16.0 0.00 0.00 0.00 77 1016.1
20260506160152 49 53 9.0 13.0 0.00 0.00 0.00 77 1016.1
20260506153137 48 45 11.0 14.0 0.00 0.00 0.00 78 1016.2
20260506151556 48 53 13.0 17.0 0.00 0.00 0.00 78 1016.2
20260506150056 48 58 12.0 17.0 0.00 0.00 0.00 78 1016.1
20260506144750 48 64 14.0 19.0 0.00 0.00 0.00 79 1016.2
20260506143055 48 58 13.0 18.0 0.00 0.00 0.00 78 1016.2
20260506141556 48 52 15.0 19.0 0.00 0.00 0.00 79 1016.1
20260506140111 48 51 13.0 18.0 0.00 0.00 0.00 77 1016.2
20260506134620 49 48 15.0 20.0 0.00 0.00 0.00 76 1016.0